Location: Pisa
(43.7170°N, 10.3830°E)
Time: 21:16:32
(UTC+02:00)

ISS - Pass Details

Date: 15 May 2021
Orbit: 417 x 422 km, 51.6° (Epoch: 22 June)

Event Time Altitude Azimuth Distance (km) Brightness Sun altitude
Rises 02:04:14 0° 298° (WNW) 2,370 0.2 -26.4°
Reaches altitude 10° 02:06:40 10° 314° (NW) 1,506 -0.6 -26.3°
Maximum altitude 02:09:22 22° 7° (N) 981 -1.2 -26.2°
Drops below altitude 10° 02:12:05 10° 61° (ENE) 1,507 -0.4 -26.0°
Sets 02:14:31 0° 77° (ENE) 2,372 0.4 -25.9°
